GW2922 Weather Reports


time (UTC)temp
C
wind
direction
speed
KPH
gust
KPH
rain 1hr
cm
rain 24hr
cm
rain mn
cm
humidity
%
barometer
mb
20260904235344 20 80 1.6 4.8 0.00 0.18 0.18 58 1017.2
20260904234844 20 355 4.8 6.4 0.00 0.18 0.18 58 1016.9
20260904234339 20 29 4.8 4.8 0.00 0.18 0.18 55 1016.9
20260904233835 20 9 3.2 4.8 0.00 0.18 0.18 56 1017.2
20260904233330 20 65 3.2 4.8 0.00 0.18 0.18 57 1017.2
20260904232827 20 355 3.2 4.8 0.00 0.18 0.18 59 1016.9
20260904232323 20 353 3.2 3.2 0.00 0.18 0.18 61 1016.9
20260904231819 21 357 3.2 9.7 0.00 0.18 0.18 61 1016.9
20260904231313 20 104 0.0 1.6 0.00 0.18 0.18 59 1016.9
20260904230808 20 146 0.0 4.8 0.00 0.18 0.18 61 1016.9
20260904230306 19 122 0.0 3.2 0.00 0.18 0.18 65 1016.9
20260904225802 19 302 1.6 6.4 0.00 0.18 0.18 64 1016.9
20260904225255 19 53 3.2 6.4 0.00 0.18 0.18 65 1016.9
20260904224754 19 14 1.6 3.2 0.00 0.18 0.18 65 1016.9
20260904224250 19 2 3.2 6.4 0.00 0.18 0.18 65 1016.5
20260904223749 19 357 3.2 6.4 0.00 0.18 0.18 65 1016.9
20260904223244 19 208 1.6 4.8 0.00 0.18 0.18 65 1016.9
20260904222741 19 19 4.8 6.4 0.00 0.18 0.18 64 1016.9
20260904222235 19 16 3.2 11.3 0.00 0.18 0.18 62 1016.9
20260904221735 20 350 1.6 6.4 0.00 0.18 0.18 62 1016.9
20260904221230 19 147 3.2 3.2 0.00 0.18 0.18 62 1016.5
20260904220725 19 44 3.2 4.8 0.00 0.18 0.18 63 1016.5
20260904220220 19 25 1.6 4.8 0.00 0.18 0.18 62 1016.9
20260904215720 20 24 3.2 4.8 0.00 0.18 0.18 61 1016.5
20260904215215 20 51 1.6 4.8 0.00 0.18 0.18 62 1016.9
20260904214710 19 20 4.8 9.7 0.00 0.18 0.18 61 1016.5
20260904214206 19 67 4.8 6.4 0.00 0.18 0.18 63 1016.9
20260904213704 18 71 3.2 6.4 0.00 0.18 0.18 63 1016.9
20260904213200 18 9 4.8 9.7 0.00 0.18 0.18 65 1016.5
20260904212655 19 148 3.2 6.4 0.00 0.18 0.18 62 1016.9
20260904212149 18 55 1.6 6.4 0.00 0.18 0.18 63 1016.9
20260904211644 19 39 3.2 6.4 0.00 0.18 0.18 62 1016.9
20260904211140 20 52 3.2 6.4 0.00 0.18 0.18 61 1016.9
20260904210639 20 76 1.6 9.7 0.00 0.18 0.18 62 1016.9
20260904210135 20 258 4.8 9.7 0.00 0.18 0.18 61 1016.5
20260904205631 19 139 1.6 3.2 0.00 0.18 0.18 64 1016.5
20260904205127 18 186 3.2 4.8 0.00 0.18 0.18 66 1016.5
20260904204623 18 90 1.6 3.2 0.00 0.18 0.18 66 1016.5
20260904204119 18 120 1.6 4.8 0.00 0.18 0.18 68 1016.5
20260904203614 18 88 3.2 9.7 0.00 0.18 0.18 68 1016.5
20260904203111 19 89 1.6 4.8 0.00 0.18 0.18 66 1016.5
20260904202606 18 238 1.6 4.8 0.00 0.18 0.18 69 1016.5
20260904202102 18 61 1.6 1.6 0.00 0.18 0.18 69 1016.2
20260904201556 17 101 1.6 4.8 0.00 0.18 0.18 71 1016.5
20260904201052 17 44 4.8 9.7 0.00 0.18 0.18 72 1016.5
20260904200550 17 51 3.2 9.7 0.00 0.18 0.18 73 1016.2
20260904200045 17 34 4.8 11.3 0.00 0.18 0.18 72 1016.2
20260904195543 17 325 1.6 4.8 0.00 0.18 0.18 72 1016.5
20260904195038 17 3 3.2 4.8 0.00 0.18 0.18 70 1016.5
20260904194533 16 331 3.2 4.8 0.00 0.18 0.18 73 1016.5
20260904194027 16 46 4.8 11.3 0.00 0.18 0.18 74 1016.5
20260904193522 16 3 9.7 12.9 0.00 0.18 0.18 71 1016.5
20260904193019 17 27 4.8 6.4 0.00 0.18 0.18 71 1016.2
20260904192518 17 347 3.2 6.4 0.00 0.18 0.18 70 1016.5
20260904192014 17 64 1.6 4.8 0.00 0.18 0.18 70 1016.5
20260904191510 17 110 0.0 4.8 0.00 0.18 0.18 71 1016.2
20260904191007 16 33 3.2 4.8 0.00 0.18 0.18 71 1016.2
20260904190502 16 82 0.0 4.8 0.00 0.18 0.18 73 1016.2
20260904185958 16 54 1.6 3.2 0.00 0.18 0.18 74 1016.2
20260904185454 15 89 3.2 4.8 0.00 0.18 0.18 74 1016.2
20260904184948 16 346 6.4 6.4 0.00 0.18 0.18 73 1016.2
20260904184443 16 81 1.6 3.2 0.00 0.18 0.18 72 1016.2
20260904183938 16 228 1.6 4.8 0.00 0.18 0.18 72 1016.2
20260904183433 16 262 1.6 4.8 0.00 0.18 0.18 73 1016.2
20260904182929 16 100 0.0 3.2 0.00 0.18 0.18 75 1016.2
20260904182424 16 92 0.0 0.0 0.00 0.18 0.18 75 1015.8
20260904181919 16 42 0.0 3.2 0.00 0.18 0.18 76 1015.8
20260904181414 16 309 3.2 3.2 0.00 0.18 0.18 75 1015.8
20260904180909 16 113 1.6 3.2 0.00 0.18 0.18 77 1015.8
20260904180404 16 136 0.0 1.6 0.00 0.18 0.18 77 1015.8
20260904175903 16 72 1.6 3.2 0.00 0.18 0.18 78 1015.8
20260904175402 16 161 1.6 1.6 0.00 0.18 0.18 77 1015.8
20260904174856 17 83 3.2 3.2 0.00 0.18 0.18 77 1015.8
20260904174353 16 81 0.0 1.6 0.00 0.18 0.18 76 1015.8
20260904173849 16 111 0.0 1.6 0.00 0.18 0.18 78 1015.8
20260904173344 16 63 1.6 1.6 0.00 0.18 0.18 77 1015.8
20260904172840 15 78 1.6 1.6 0.00 0.18 0.18 79 1015.8
20260904172339 15 78 0.0 3.2 0.00 0.18 0.18 80 1015.8
20260904171839 16 97 0.0 1.6 0.00 0.18 0.18 80 1015.8
20260904171334 16 251 1.6 4.8 0.00 0.18 0.18 80 1015.8
20260904170831 15 191 0.0 3.2 0.00 0.18 0.18 81 1015.8
20260904170326 15 179 0.0 1.6 0.00 0.18 0.18 83 1015.8
20260904165821 15 136 0.0 3.2 0.00 0.18 0.18 85 1015.8
20260904165319 14 159 1.6 1.6 0.00 0.18 0.18 85 1015.8
20260904164815 14 114 0.0 1.6 0.00 0.18 0.18 86 1015.8
20260904164309 13 136 3.2 3.2 0.00 0.18 0.18 87 1015.8
20260904163806 13 188 3.2 4.8 0.00 0.18 0.18 88 1016.2
20260904163306 13 100 0.0 3.2 0.00 0.18 0.18 88 1015.8
20260904162805 13 96 1.6 1.6 0.00 0.18 0.18 89 1016.2
20260904162300 13 100 0.0 0.0 0.00 0.18 0.18 89 1015.8
20260904161755 13 208 0.0 3.2 0.00 0.18 0.18 90 1015.8
20260904161250 13 158 1.6 3.2 0.00 0.18 0.18 91 1015.8
20260904160746 12 77 0.0 0.0 0.00 0.18 0.18 91 1015.8
20260904160242 12 73 0.0 1.6 0.00 0.18 0.18 92 1015.8
20260904155741 12 72 0.0 0.0 0.00 0.18 0.18 93 1015.8
20260904155240 12 72 0.0 0.0 0.00 0.18 0.18 93 1015.8
20260904154738 12 72 0.0 0.0 0.00 0.18 0.18 93 1015.8
20260904154233 12 72 0.0 0.0 0.00 0.18 0.18 93 1015.8
20260904153729 12 72 0.0 0.0 0.00 0.18 0.18 93 1015.5
20260904153225 12 72 0.0 1.6 0.00 0.18 0.18 94 1015.5
20260904152721 12 72 0.0 0.0 0.00 0.18 0.18 94 1015.2
20260904152216 12 74 0.0 0.0 0.00 0.18 0.18 94 1015.2
20260904151711 11 74 1.6 3.2 0.00 0.18 0.18 94 1015.2
20260904151209 11 74 0.0 1.6 0.00 0.18 0.18 94 1015.2
20260904150705 12 74 0.0 1.6 0.00 0.18 0.18 94 1015.2
20260904150201 11 74 0.0 1.6 0.00 0.18 0.18 94 1015.2
20260904145659 11 74 0.0 1.6 0.00 0.18 0.18 94 1015.2
20260904145154 11 98 0.0 1.6 0.00 0.18 0.18 94 1015.2
20260904144649 11 104 0.0 1.6 0.18 0.18 0.18 94 1015.2
20260904144145 11 95 1.6 1.6 0.18 0.18 0.18 94 1014.8
20260904143641 11 97 0.0 0.0 0.00 0.15 0.15 94 1014.8
20260904143137 11 109 0.0 0.0 0.13 0.15 0.15 94 1014.8
20260904142634 11 109 0.0 0.0 0.13 0.15 0.15 94 1015.2
20260904142129 11 109 0.0 1.6 0.18 0.13 0.13 94 1015.2
20260904141624 11 103 0.0 1.6 0.36 0.13 0.13 94 1014.8
20260904141119 11 6 1.6 3.2 0.30 0.10 0.10 94 1015.2
20260904140610 11 93 1.6 1.6 0.13 0.08 0.08 94 1014.8
20260904140109 11 178 1.6 1.6 0.00 0.05 0.05 94 1015.2
20260904135608 11 155 1.6 1.6 0.00 0.05 0.05 94 1014.8
20260904135105 11 152 1.6 1.6 0.00 0.05 0.05 93 1014.8
20260904134600 11 155 1.6 1.6 0.00 0.05 0.05 93 1014.8
20260904134054 11 154 0.0 0.0 0.00 0.05 0.05 93 1014.8
20260904133549 11 154 0.0 1.6 0.00 0.05 0.05 93 1014.8
20260904133045 11 154 0.0 1.6 0.00 0.05 0.05 93 1014.5
20260904132539 11 155 0.0 0.0 0.00 0.05 0.05 93 1014.5
20260904132039 11 154 0.0 1.6 0.00 0.05 0.05 93 1014.5
20260904131538 11 165 0.0 0.0 0.18 0.05 0.05 93 1014.5
20260904131034 10 170 1.6 1.6 0.18 0.05 0.05 93 1014.5
20260904130534 10 162 0.0 0.0 0.00 0.03 0.03 93 1014.5
20260904130029 10 153 0.0 1.6 0.00 0.03 0.03 92 1014.5
20260904125525 10 138 4.8 9.7 0.00 0.03 0.03 92 1014.5
20260904125020 11 142 6.4 6.4 0.00 0.03 0.03 92 1014.1
20260904124515 11 102 3.2 3.2 0.00 0.03 0.03 92 1014.1
20260904124011 11 102 0.0 0.0 0.00 0.03 0.03 92 1014.1
20260904123510 11 102 0.0 0.0 0.13 0.03 0.03 92 1014.1
20260904123007 11 102 0.0 0.0 0.00 0.00 0.00 92 1014.1
20260904122501 11 102 0.0 0.0 0.00 0.00 0.00 92 1013.8
20260904121955 11 102 0.0 0.0 0.00 0.00 0.00 92 1013.8
20260904121451 11 102 0.0 0.0 0.00 0.00 0.00 92 1013.8
20260904120948 11 102 0.0 0.0 0.00 0.00 0.00 92 1013.8
20260904120443 11 102 1.6 3.2 0.00 0.00 0.00 92 1013.8
20260904115938 11 102 0.0 1.6 0.00 0.00 0.00 92 1013.5
20260904115433 11 102 0.0 1.6 0.00 0.00 0.00 92 1013.8
20260904114928 11 102 0.0 1.6 0.00 0.00 0.00 92 1013.8
20260904114428 11 102 0.0 1.6 0.00 0.00 0.00 92 1013.8
20260904113924 11 102 0.0 3.2 0.00 0.00 0.00 92 1013.8
20260904113423 11 102 1.6 1.6 0.00 0.00 0.00 92 1013.8
20260904112922 11 102 0.0 1.6 0.00 0.00 0.00 92 1013.8
20260904112418 11 102 1.6 1.6 0.00 0.00 0.00 91 1013.8
20260904111914 10 102 0.0 0.0 0.00 0.00 0.00 91 1013.8
20260904111409 10 102 0.0 0.0 0.00 0.00 0.00 91 1013.5
20260904110905 10 102 0.0 0.0 0.00 0.00 0.00 91 1013.5
20260904110403 10 102 0.0 0.0 0.00 0.00 0.00 91 1013.8
20260904105859 10 102 0.0 0.0 0.00 0.00 0.00 91 1013.5
20260904105354 10 102 0.0 0.0 0.00 0.00 0.00 91 1013.8
20260904104849 10 102 0.0 0.0 0.00 0.00 0.00 91 1013.5
20260904104344 11 102 0.0 0.0 0.00 0.00 0.00 90 1013.5
20260904103841 11 102 0.0 1.6 0.00 0.00 0.00 90 1013.5
20260904103340 11 102 3.2 3.2 0.00 0.00 0.00 90 1013.5
20260904102836 11 102 0.0 0.0 0.00 0.00 0.00 90 1013.5
20260904102331 11 102 0.0 0.0 0.00 0.00 0.00 90 1013.5
20260904101827 11 102 0.0 0.0 0.00 0.00 0.00 90 1013.5
20260904101324 11 102 0.0 0.0 0.00 0.00 0.00 91 1013.1
20260904100819 11 102 0.0 0.0 0.00 0.00 0.00 91 1013.1
20260904100316 11 102 0.0 1.6 0.00 0.00 0.00 92 1013.1
20260904095815 11 102 0.0 1.6 0.00 0.00 0.00 92 1013.1
20260904095310 11 101 1.6 1.6 0.00 0.00 0.00 92 1013.1
20260904094805 11 101 0.0 1.6 0.00 0.00 0.00 93 1013.1
20260904094300 10 101 0.0 1.6 0.00 0.00 0.00 93 1013.1
20260904093757 10 101 0.0 1.6 0.00 0.00 0.00 93 1013.1
20260904093251 10 102 0.0 0.0 0.00 0.00 0.00 93 1013.1
20260904092746 10 102 0.0 0.0 0.00 0.00 0.00 93 1013.1
20260904092243 10 102 0.0 0.0 0.00 0.00 0.00 93 1013.1
20260904091738 10 102 0.0 0.0 0.00 0.00 0.00 93 1013.5
20260904091233 10 102 0.0 0.0 0.00 0.00 0.00 93 1013.5
20260904090729 10 102 0.0 0.0 0.00 0.00 0.00 93 1013.5
20260904090224 10 102 0.0 1.6 0.00 0.00 0.00 93 1013.5
20260904085719 10 102 3.2 3.2 0.00 0.00 0.00 93 1013.5
20260904085214 10 151 0.0 0.0 0.00 0.00 0.00 93 1013.5
20260904084708 10 146 0.0 0.0 0.00 0.00 0.00 93 1013.8
20260904084159 10 141 1.6 1.6 0.00 0.00 0.00 92 1013.5
20260904083655 10 132 0.0 0.0 0.00 0.00 0.00 92 1013.8
20260904083152 10 131 0.0 0.0 0.00 0.00 0.00 92 1013.8
20260904082646 10 132 0.0 1.6 0.00 0.00 0.00 92 1013.8
20260904082141 10 132 0.0 0.0 0.00 0.00 0.00 92 1013.8
20260904081631 10 132 0.0 0.0 0.00 0.00 0.00 92 1013.5
20260904081126 10 132 0.0 0.0 0.00 0.00 0.00 92 1013.8
20260904080621 10 132 0.0 0.0 0.00 0.00 0.00 92 1013.8
20260904080118 10 131 0.0 0.0 0.00 0.00 0.00 92 1013.8
20260904075613 10 131 1.6 1.6 0.00 0.00 0.00 92 1013.8
20260904075112 10 131 0.0 1.6 0.00 0.00 0.00 91 1013.8
20260904074607 10 132 0.0 1.6 0.00 0.00 0.00 92 1013.8
20260904074102 10 126 0.0 0.0 0.00 0.00 0.00 91 1013.8
20260904073556 10 126 0.0 0.0 0.00 0.00 0.00 91 1013.8
20260904073053 10 126 0.0 0.0 0.00 0.00 0.00 91 1013.8
20260904072548 10 126 0.0 0.0 0.00 0.00 0.00 91 1013.5
20260904072044 11 126 0.0 0.0 0.00 0.00 0.00 90 1013.8
20260904071539 11 126 0.0 0.0 0.00 0.00 0.00 90 1013.8
20260904071034 11 126 0.0 0.0 0.00 0.00 0.00 90 1013.8
20260904070533 11 126 0.0 0.0 0.00 0.00 0.00 90 1013.8
20260904070028 11 126 0.0 0.0 0.00 0.15 0.15 90 1013.8
20260904065523 11 126 0.0 0.0 0.00 0.15 0.15 90 1013.8
20260904065019 11 126 0.0 0.0 0.00 0.15 0.15 90 1013.5
20260904064515 11 126 0.0 0.0 0.00 0.15 0.15 90 1013.5
20260904064009 11 151 0.0 0.0 0.00 0.15 0.15 90 1013.5
20260904063506 11 151 0.0 0.0 0.00 0.15 0.15 89 1013.5
20260904063000 11 168 0.0 1.6 0.00 0.15 0.15 89 1013.5
20260904062456 11 168 0.0 0.0 0.00 0.15 0.15 89 1013.5
20260904061952 11 157 0.0 0.0 0.00 0.15 0.15 89 1013.5
20260904061448 11 137 0.0 0.0 0.00 0.15 0.15 88 1013.5
20260904060944 11 137 0.0 0.0 0.00 0.15 0.15 88 1013.5
20260904060440 11 137 0.0 0.0 0.00 0.15 0.15 88 1013.5
20260904055935 11 137 0.0 0.0 0.00 0.15 0.15 88 1013.5
20260904055431 11 137 0.0 0.0 0.00 0.15 0.15 88 1013.5
20260904054926 11 137 0.0 0.0 0.00 0.15 0.15 88 1013.5
20260904054421 11 137 0.0 0.0 0.00 0.15 0.15 88 1013.1
20260904053917 11 137 0.0 0.0 0.00 0.15 0.15 88 1013.5
20260904053416 11 137 0.0 0.0 0.00 0.15 0.15 88 1013.5
20260904052912 11 137 0.0 1.6 0.00 0.15 0.15 89 1013.5
20260904052409 11 91 0.0 0.0 0.00 0.15 0.15 89 1013.5
20260904051905 11 92 0.0 1.6 0.00 0.15 0.15 89 1013.5
20260904051400 11 107 0.0 0.0 0.00 0.15 0.15 89 1013.5
20260904050854 11 86 0.0 0.0 0.00 0.15 0.15 89 1013.5
20260904050351 11 91 0.0 0.0 0.00 0.15 0.15 88 1013.5
20260904045845 11 88 0.0 0.0 0.00 0.15 0.15 88 1013.5
20260904045340 11 87 0.0 0.0 0.00 0.15 0.15 88 1013.5
20260904044835 11 89 0.0 0.0 0.00 0.15 0.15 88 1013.5
20260904044331 11 89 0.0 0.0 0.00 0.15 0.15 88 1013.5
20260904043827 11 90 0.0 0.0 0.00 0.15 0.15 88 1013.5
20260904043324 11 101 0.0 1.6 0.00 0.15 0.15 88 1013.5
20260904042824 11 64 1.6 1.6 0.00 0.15 0.15 87 1013.5
20260904042320 11 94 0.0 1.6 0.00 0.15 0.15 87 1013.5
20260904041820 12 110 0.0 0.0 0.00 0.15 0.15 87 1013.5
20260904041316 12 147 0.0 0.0 0.00 0.15 0.15 86 1013.5
20260904040812 12 100 0.0 0.0 0.00 0.15 0.15 86 1013.5
20260904040306 12 177 0.0 1.6 0.00 0.15 0.15 86 1013.5
20260904035803 12 125 0.0 1.6 0.00 0.15 0.15 85 1013.5
20260904035259 12 117 1.6 1.6 0.00 0.15 0.15 85 1013.5
20260904034757 12 97 0.0 1.6 0.00 0.15 0.15 84 1013.5
20260904034253 12 114 0.0 1.6 0.00 0.15 0.15 84 1013.1
20260904033749 12 112 0.0 3.2 0.00 0.15 0.15 84 1013.5
20260904033245 12 13 1.6 4.8 0.00 0.15 0.15 84 1013.5
20260904032741 12 71 0.0 1.6 0.00 0.15 0.15 84 1013.1
20260904032240 12 26 1.6 3.2 0.00 0.15 0.15 84 1013.1
20260904031735 12 109 0.0 3.2 0.00 0.15 0.15 84 1013.5
20260904031230 12 107 0.0 1.6 0.00 0.15 0.15 84 1013.1
20260904030720 12 105 0.0 1.6 0.00 0.15 0.15 83 1013.1
20260904030215 13 112 0.0 0.0 0.00 0.15 0.15 82 1013.1
20260904025707 13 111 0.0 3.2 0.00 0.15 0.15 81 1012.8
20260904025201 13 121 0.0 1.6 0.00 0.15 0.15 81 1012.8
20260904024656 13 102 1.6 1.6 0.00 0.15 0.15 79 1012.8
20260904024151 14 85 1.6 1.6 0.00 0.15 0.15 79 1012.8
20260904023647 14 96 0.0 0.0 0.00 0.15 0.15 78 1012.8
20260904023143 15 100 0.0 0.0 0.00 0.15 0.15 77 1012.5
20260904022637 15 96 0.0 0.0 0.00 0.15 0.15 77 1012.5
20260904022134 15 108 0.0 0.0 0.00 0.15 0.15 76 1012.5
20260904021630 15 108 0.0 0.0 0.00 0.15 0.15 76 1012.5
20260904021125 15 109 0.0 0.0 0.00 0.15 0.15 76 1012.5
20260904020621 15 109 0.0 0.0 0.00 0.15 0.15 75 1012.5
20260904020115 15 100 0.0 1.6 0.00 0.15 0.15 75 1012.5
20260904015615 15 100 0.0 1.6 0.00 0.15 0.15 74 1012.5
20260904015114 15 102 0.0 0.0 0.00 0.15 0.15 74 1012.5
20260904014608 15 81 3.2 3.2 0.00 0.15 0.15 74 1012.5
20260904014104 16 51 1.6 3.2 0.00 0.15 0.15 73 1012.5
20260904013601 16 29 1.6 3.2 0.00 0.15 0.15 73 1012.5
20260904013057 16 79 1.6 3.2 0.00 0.15 0.15 73 1012.5
20260904012556 16 69 1.6 3.2 0.00 0.15 0.15 71 1012.5
20260904012055 16 92 0.0 1.6 0.00 0.15 0.15 71 1012.5
20260904011549 16 120 0.0 1.6 0.00 0.15 0.15 72 1012.5
20260904011045 17 52 1.6 3.2 0.00 0.15 0.15 70 1012.1
20260904010540 17 93 1.6 1.6 0.00 0.15 0.15 68 1012.5
20260904010031 18 72 1.6 3.2 0.00 0.15 0.15 66 1012.1
20260904005525 18 122 0.0 1.6 0.00 0.15 0.15 64 1012.1
20260904005021 18 80 0.0 1.6 0.00 0.15 0.15 64 1012.1
20260904004517 18 100 0.0 1.6 0.00 0.15 0.15 63 1012.1
20260904004016 18 106 0.0 1.6 0.00 0.15 0.15 63 1012.1
20260904003512 18 90 1.6 9.7 0.00 0.15 0.15 63 1012.1
20260904003008 18 117 0.0 1.6 0.00 0.15 0.15 64 1012.1
20260904002504 18 148 1.6 3.2 0.00 0.15 0.15 65 1012.5
20260904002004 18 121 1.6 3.2 0.00 0.15 0.15 64 1012.1
20260904001459 18 149 0.0 3.2 0.00 0.15 0.15 63 1012.1
20260904000958 18 117 0.0 6.4 0.00 0.15 0.15 64 1012.1
20260904000458 18 100 0.0 3.2 0.00 0.15 0.15 65 1012.1
20260903235954 18 89 1.6 4.8 0.00 0.15 0.15 65 1012.1